Precipitable_Water
1.21 1.37 1.35 1.36 1.35 1.36 1.34 1.34 1.35 1.35 1.34 1.31 1.28 1.23 1.16 1.06 1.04 1.22 1.35 1.35 1.20 1.16 1.11 1.06 1.08 1.15 1.27 1.25 1.27 1.26 1.21 1.12 0.95 0.93 0.93 0.85 0.79 0.84 0.84 0.79 0.79 0.89 1.09
1.27 1.39 1.32 1.36 1.33 1.34 1.36 1.31 1.30 1.29 1.25 1.22 1.21 1.09 1.06 1.05 1.12 1.34 1.08 0.95 0.91 0.84 0.80 0.92 1.01 0.98 1.01 1.08 1.11 1.09 1.03 0.94 0.83 0.74 0.68 0.72 0.82 0.87 0.84 0.84 0.81 0.92 1.09
1.28 1.38 1.34 1.36 1.32 1.34 1.39 1.40 1.35 1.28 1.23 1.16 1.05 1.01 0.99 1.05 1.15 1.31 1.17 1.05 0.95 0.84 0.78 0.85 0.90 0.96 0.96 1.02 1.02 0.98 0.95 0.89 0.83 0.81 0.83 0.91 0.91 0.82 0.87 0.91 1.04 1.04 1.06
1.33 1.33 1.37 1.32 1.38 1.41 1.43 1.44 1.40 1.36 1.27 1.12 1.06 0.97 0.94 1.04 1.17 1.28 1.21 1.12 1.01 0.83 0.77 0.77 0.79 0.85 0.91 0.96 0.97 0.95 0.90 0.88 0.90 0.85 0.84 0.92 1.06 0.97 1.00 1.13 1.31 1.25 1.21
1.30 1.36 1.38 1.35 1.36 1.41 1.44 1.43 1.41 1.39 1.29 1.19 1.05 0.93 1.11 1.17 1.22 1.28 1.24 1.14 1.04 0.81 0.80 0.80 0.79 0.80 0.86 0.92 0.94 0.93 0.93 0.94 0.94 0.91 0.86 0.96 1.14 1.19 1.23 1.30 1.30 1.28 1.31
1.28 1.39 1.46 1.37 1.37 1.38 1.45 1.42 1.45 1.36 1.31 1.25 1.05 0.93 1.24 1.25 1.27 1.26 1.18 1.12 1.03 0.84 0.88 0.90 0.88 0.90 0.93 0.95 0.97 0.99 0.99 0.97 0.95 0.92 0.85 0.89 1.09 1.26 1.25 1.26 1.24 1.23 1.20
1.30 1.39 1.43 1.42 1.38 1.37 1.44 1.47 1.43 1.34 1.27 1.22 1.04 0.99 1.28 1.27 1.26 1.24 1.19 1.12 1.01 0.90 0.94 0.95 0.94 0.91 0.94 0.99 1.01 0.98 1.00 0.99 0.97 0.90 0.81 0.81 0.96 1.19 1.18 1.13 1.11 1.10 1.05
1.28 1.35 1.38 1.41 1.38 1.37 1.48 1.50 1.42 1.34 1.27 1.17 1.01 0.99 1.25 1.27 1.21 1.19 1.16 1.11 1.00 1.00 1.01 0.98 0.95 0.95 0.96 1.01 1.04 0.98 1.02 1.00 0.95 0.86 0.82 0.82 0.84 1.03 1.17 1.09 1.00 0.94 0.93
1.34 1.30 1.31 1.42 1.39 1.37 1.49 1.49 1.44 1.39 1.32 1.17 1.03 1.00 1.01 1.06 1.17 1.21 1.15 1.07 0.98 1.03 1.01 0.97 0.96 0.99 1.01 1.01 1.04 0.98 1.00 0.97 0.90 0.83 0.79 0.83 0.91 1.00 1.22 1.15 1.06 0.98 0.93
1.34 1.28 1.31 1.36 1.38 1.39 1.48 1.46 1.43 1.39 1.32 1.20 1.11 1.04 1.04 1.03 1.03 1.06 1.09 1.08 1.01 1.06 1.00 0.97 0.96 0.96 0.99 1.00 1.00 0.98 0.94 0.92 0.87 0.86 0.90 0.99 1.02 1.15 1.23 1.15 1.10 1.00 0.94
1.34 1.30 1.28 1.25 1.33 1.37 1.42 1.43 1.41 1.35 1.31 1.28 1.16 1.03 1.02 1.01 1.06 1.10 1.09 1.08 1.12 1.12 1.03 0.98 0.93 0.95 0.96 0.95 0.94 0.94 0.90 0.86 0.85 0.92 1.00 1.10 1.14 1.27 1.25 1.18 1.11 1.02 0.97
1.26 1.30 1.34 1.31 1.27 1.29 1.38 1.41 1.34 1.32 1.32 1.31 1.23 1.10 0.94 0.95 1.01 1.05 1.05 1.05 1.12 1.18 1.14 1.07 0.96 0.92 0.89 0.85 0.85 0.85 0.84 0.83 0.86 0.93 1.04 1.15 1.23 1.35 1.30 1.22 1.10 1.03 0.98
1.24 1.29 1.34 1.33 1.31 1.25 1.31 1.35 1.31 1.28 1.29 1.27 1.23 1.16 1.06 0.92 0.95 0.98 0.96 1.00 1.08 1.15 1.12 1.11 1.07 0.98 0.87 0.83 0.81 0.79 0.76 0.79 0.84 0.95 1.05 1.14 1.24 1.38 1.32 1.27 1.15 1.08 1.05
1.23 1.26 1.27 1.26 1.24 1.23 1.30 1.30 1.30 1.27 1.25 1.20 1.20 1.18 1.09 1.03 0.94 0.92 0.93 1.01 1.05 1.11 1.12 1.12 1.09 1.09 1.02 0.95 0.89 0.85 0.83 0.79 0.83 0.92 1.00 1.10 1.18 1.24 1.26 1.20 1.21 1.18 1.11
1.23 1.26 1.29 1.30 1.22 1.20 1.17 1.20 1.23 1.21 1.19 1.16 1.16 1.16 1.13 1.07 1.05 1.03 0.98 1.07 1.15 1.20 1.21 1.17 1.17 1.16 1.13 1.09 1.04 0.98 0.91 0.85 0.82 0.86 0.97 1.05 1.11 1.16 1.19 1.20 1.22 1.21 1.18
1.25 1.26 1.30 1.29 1.30 1.27 1.19 1.17 1.16 1.15 1.16 1.15 1.10 1.12 1.17 1.18 1.18 1.17 1.08 1.10 1.15 1.18 1.19 1.17 1.14 1.13 1.12 1.12 1.11 1.10 1.05 0.98 0.95 0.93 0.96 1.03 1.10 1.14 1.16 1.18 1.19 1.18 1.16
1.25 1.28 1.27 1.29 1.32 1.27 1.24 1.22 1.21 1.20 1.20 1.16 1.14 1.17 1.21 1.24 1.20 1.16 1.13 1.09 1.11 1.15 1.15 1.17 1.20 1.21 1.17 1.19 1.15 1.17 1.13 1.11 1.06 1.04 1.03 1.03 1.07 1.12 1.16 1.20 1.22 1.22 1.19
1.32 1.28 1.33 1.36 1.34 1.32 1.26 1.25 1.25 1.26 1.23 1.22 1.20 1.18 1.19 1.22 1.23 1.19 1.15 1.13 1.16 1.16 1.17 1.21 1.23 1.21 1.21 1.20 1.17 1.17 1.18 1.17 1.11 1.10 1.08 1.12 1.15 1.18 1.21 1.23 1.24 1.24 1.24
1.23 1.25 1.27 1.34 1.31 1.32 1.31 1.29 1.27 1.27 1.26 1.25 1.24 1.20 1.21 1.24 1.24 1.19 1.17 1.18 1.23 1.24 1.29 1.31 1.28 1.26 1.16 1.15 1.17 1.19 1.22 1.20 1.19 1.12 1.08 1.10 1.15 1.19 1.24 1.27 1.28 1.26 1.24
1.11 1.17 1.23 1.25 1.25 1.29 1.33 1.35 1.35 1.34 1.29 1.28 1.22 1.19 1.22 1.23 1.24 1.23 1.21 1.24 1.33 1.34 1.31 1.28 1.22 1.21 1.18 1.14 1.12 1.14 1.21 1.24 1.25 1.20 1.16 1.16 1.17 1.19 1.20 1.20 1.23 1.23 1.21
0.92 0.95 1.01 1.08 1.14 1.17 1.15 1.11 1.11 1.08 1.18 1.22 1.26 1.26 1.24 1.22 1.22 1.23 1.22 1.22 1.26 1.22 1.19 1.20 1.17 1.12 1.08 1.11 0.98 0.96 1.02 1.09 1.10 1.10 1.13 1.12 1.08 1.08 1.10 1.12 1.15 1.18 1.17
0.75 0.77 0.81 0.88 0.97 1.07 1.18 1.20 1.21 1.18 1.19 1.21 1.23 1.23 1.24 1.22 1.20 1.18 1.16 1.15 1.12 1.11 1.13 1.13 1.06 0.99 0.99 1.01 0.90 0.85 0.72 0.79 0.88 0.94 0.99 1.00 0.97 0.97 0.97 1.02 1.07 1.09 1.10
0.73 0.74 0.74 0.76 0.79 0.82 0.85 0.88 0.88 0.91 0.94 0.97 1.05 1.12 1.15 1.16 1.20 1.20 1.19 1.14 1.12 1.11 1.02 1.01 1.01 0.97 0.88 0.94 0.96 0.86 0.68 0.60 0.72 0.86 0.84 0.90 0.88 0.88 0.97 0.97 0.98 1.02 1.06
0.71 0.73 0.73 0.73 0.73 0.74 0.74 0.69 0.65 0.61 0.58 0.62 0.64 0.68 0.71 0.74 0.75 0.77 0.82 0.88 0.91 0.94 0.92 0.93 0.99 0.96 0.94 0.82 0.88 0.90 0.90 0.85 0.73 0.70 0.86 0.86 0.93 0.93 0.97 0.91 0.96 0.97 1.00
0.71 0.70 0.71 0.71 0.71 0.72 0.71 0.67 0.63 0.59 0.59 0.59 0.59 0.59 0.63 0.66 0.68 0.68 0.64 0.65 0.71 0.75 0.77 0.87 0.96 0.92 0.93 0.89 0.88 0.91 0.92 0.93 0.89 0.75 0.63 0.68 0.78 0.82 0.82 0.81 0.79 0.83 0.86
0.71 0.69 0.68 0.66 0.65 0.66 0.66 0.64 0.61 0.57 0.55 0.52 0.53 0.53 0.54 0.56 0.58 0.62 0.66 0.67 0.69 0.73 0.76 0.78 0.94 0.92 0.94 1.01 1.01 0.96 0.86 0.76 0.67 0.64 0.57 0.58 0.60 0.67 0.73 0.74 0.78 0.79 0.82
Wind_Speed
11 10 9 8 7 6 5 5 4 4 4 4 5 5 5 5 6 7 8 7 6 6 6 5 4 3 2 3 3 4 5 7 8 8 8 8 9 9 9 10 9 9 10
13 11 10 9 8 7 6 6 5 5 5 5 5 5 5 6 6 6 6 7 7 7 6 6 5 4 4 4 4 4 5 7 8 8 8 8 9 9 10 10 9 9 9
14 12 10 10 9 8 7 6 6 6 6 6 6 5 5 5 5 5 6 6 6 7 6 6 5 5 4 4 4 5 6 7 7 8 8 9 10 10 10 10 10 9 9
15 13 11 10 10 9 8 7 6 6 6 6 5 5 5 5 5 5 5 6 6 7 6 6 6 5 5 5 5 6 7 7 8 9 9 10 11 10 10 10 10 9 8
16 14 11 11 10 9 8 7 6 6 5 5 5 5 5 5 4 4 5 5 6 6 6 6 6 6 5 5 6 6 7 7 7 9 10 10 11 10 10 10 10 9 9
17 15 13 12 11 10 9 7 6 5 4 4 5 5 5 4 5 4 4 5 5 5 6 6 5 5 5 5 6 7 7 8 8 9 10 10 11 10 10 10 11 11 11
18 16 14 13 12 11 10 8 6 4 2 1 3 3 4 4 3 3 4 4 4 4 5 5 5 5 5 6 7 8 7 8 9 10 11 11 12 11 12 12 12 13 14
19 17 15 14 13 12 11 9 7 5 3 2 0 0 1 2 2 2 3 3 4 4 4 5 5 5 5 6 7 8 8 9 10 11 12 12 12 12 12 13 13 14 13
20 18 17 16 14 13 12 11 9 7 6 4 4 3 3 3 3 3 3 3 3 4 4 5 5 6 6 7 8 9 9 10 11 12 13 14 13 13 13 13 14 14 14
20 19 18 17 16 15 14 12 11 9 8 7 6 6 6 5 5 5 5 5 5 5 6 6 7 8 8 9 10 11 12 12 13 14 15 15 14 14 14 15 15 15 15
20 20 19 18 17 16 16 14 13 11 10 9 8 8 8 8 8 8 7 7 7 8 8 9 9 10 11 11 12 13 14 15 15 16 16 16 16 15 15 16 16 17 16
22 21 20 19 18 18 17 15 14 13 12 11 11 11 10 10 10 10 10 10 10 11 11 11 12 13 13 14 15 16 16 17 18 18 18 18 17 17 17 17 18 18 18
22 21 21 20 19 18 17 16 15 14 13 13 12 12 12 12 12 12 12 13 13 13 13 14 14 15 16 17 18 18 19 20 20 20 20 20 20 19 19 19 20 20 20
21 20 19 19 18 18 18 17 16 15 15 14 14 14 14 14 14 14 14 14 15 15 15 16 17 18 19 20 21 21 22 22 22 22 22 22 22 22 22 22 22 22 21
21 20 19 18 18 18 17 17 17 16 16 16 16 16 16 15 15 16 16 16 17 17 17 18 19 20 21 22 23 23 24 24 24 24 25 24 24 24 24 24 24 23 23
22 21 20 20 19 18 18 18 18 17 17 17 18 17 17 17 17 17 18 18 19 19 19 20 21 22 23 24 24 25 25 26 26 26 26 26 27 27 26 26 26 25 25
24 23 22 21 21 20 19 19 19 19 19 19 19 19 19 19 19 19 20 20 21 21 22 22 23 24 25 25 26 27 27 27 27 28 28 28 28 28 28 28 27 27 27
26 25 24 23 23 22 22 21 21 21 21 21 20 21 21 21 22 22 22 22 23 23 24 25 26 27 27 28 29 29 29 30 30 29 29 29 29 29 30 30 30 30 29
27 27 26 26 25 25 24 24 24 24 23 23 23 23 23 24 24 24 24 25 26 26 27 27 28 29 31 31 32 32 32 32 32 32 31 31 31 31 32 32 32 32 32
28 28 27 27 26 26 26 25 25 25 26 26 26 25 26 26 27 27 28 28 29 29 30 30 31 32 33 34 34 34 35 34 34 34 34 34 35 34 34 34 34 34 34
29 28 28 28 27 26 26 26 26 27 27 27 27 28 28 29 29 29 30 30 31 32 32 33 33 34 34 34 35 35 35 35 35 35 35 35 35 35 35 36 36 36 35
29 29 28 28 28 28 28 27 27 26 27 28 29 30 31 31 31 32 32 32 33 33 33 34 35 35 35 34 33 34 33 32 33 33 33 34 34 35 36 37 37 37 37
29 28 28 27 27 27 28 28 28 28 28 29 29 30 30 31 32 33 34 34 34 34 35 35 35 35 34 33 33 32 31 32 32 33 32 33 34 35 35 35 36 37 39
28 28 28 28 28 28 28 28 28 29 29 29 30 31 32 32 33 33 34 34 34 34 35 35 35 34 33 32 31 31 33 33 32 32 31 32 32 33 34 35 37 39 40
27 26 26 27 27 28 28 28 29 29 30 31 31 31 31 32 33 33 34 34 34 35 35 35 34 33 32 31 31 30 30 31 31 32 33 32 33 33 35 36 37 38 40
26 26 26 27 27 28 28 29 29 30 30 30 29 29 29 30 30 30 31 32 33 33 33 33 33 32 32 31 30 31 31 30 31 31 32 33 34 34 34 35 35 37 39
Wind_Direction
182 175 171 166 158 149 142 138 132 118 103 90 83 77 71 67 72 75 77 71 58 52 46 44 46 38 26 6 1 358 356 353 353 354 354 354 355 355 354 352 349 348 346
178 177 175 173 166 155 142 130 124 114 104 93 85 76 76 75 80 80 72 63 55 49 46 49 51 47 40 30 23 11 4 360 359 0 1 358 355 353 352 351 350 348 351
181 179 178 175 171 162 149 134 119 109 102 95 79 75 77 78 83 78 68 56 47 44 45 48 46 45 40 32 23 13 8 3 5 3 0 357 353 351 350 349 346 344 343
184 181 178 177 173 167 158 145 129 112 100 87 74 74 74 75 83 75 65 52 45 44 45 46 43 41 36 30 21 12 5 3 4 2 359 355 351 349 349 350 347 343 344
190 187 185 179 177 173 167 157 143 125 100 79 71 74 73 75 76 73 61 50 45 46 48 47 45 44 40 31 21 12 5 1 357 358 356 354 355 352 349 351 353 353 344
195 192 191 188 183 181 177 171 162 146 116 75 67 74 66 77 73 70 55 45 40 41 41 39 38 36 31 22 14 7 5 3 358 353 352 350 350 349 347 343 340 337 330
198 197 196 194 193 191 188 186 183 180 166 86 63 73 64 68 62 51 42 35 30 32 30 27 25 22 18 10 5 1 357 355 352 349 346 344 341 340 337 333 328 325 323
201 202 202 202 201 200 199 198 201 206 213 235 287 34 36 27 18 13 11 10 13 16 13 10 7 4 358 353 350 348 344 342 341 339 338 337 335 333 331 330 327 324 323
205 208 208 207 208 208 207 209 215 224 237 249 258 269 279 294 315 321 327 331 333 335 338 342 344 344 341 338 336 338 335 332 331 331 330 328 326 324 324 325 324 324 321
208 210 211 212 213 214 214 218 226 234 241 251 258 265 274 278 285 291 295 302 307 312 315 318 320 321 322 322 321 323 324 324 325 324 324 323 321 319 317 319 320 320 318
211 213 215 217 218 219 221 225 232 238 245 252 259 265 270 273 277 280 284 289 294 299 303 306 308 308 310 311 312 313 314 316 316 316 317 317 316 313 312 314 316 316 315
215 216 218 220 222 224 225 229 235 242 247 253 260 265 268 270 272 275 277 281 287 289 294 298 301 303 305 306 306 306 307 308 310 309 309 310 308 308 308 308 311 311 311
214 218 221 224 224 224 227 231 238 244 249 255 261 265 267 268 270 272 275 278 282 285 290 293 297 299 301 302 303 303 302 303 304 303 303 304 304 301 302 303 305 306 306
211 214 217 219 222 224 229 234 239 245 251 257 261 265 266 268 270 271 274 277 280 284 288 292 294 296 298 299 299 300 300 300 300 299 299 299 298 297 298 299 300 301 301
214 216 218 220 223 227 232 237 242 248 253 259 262 264 264 268 271 272 274 277 280 283 288 291 293 296 297 298 298 298 298 297 297 296 296 295 295 294 295 295 296 297 297
219 220 222 225 228 231 236 240 245 250 255 260 262 263 264 267 271 274 275 277 280 282 286 290 292 295 296 297 297 298 297 296 295 295 294 293 292 292 292 292 292 292 293
223 225 227 230 233 236 240 244 248 253 258 262 264 264 265 267 271 273 276 277 279 282 285 288 291 293 295 296 296 296 295 295 295 294 294 293 292 290 289 289 289 289 289
227 229 231 234 237 240 244 248 252 256 259 262 264 265 266 268 270 273 275 278 279 282 285 288 290 292 293 294 295 295 294 293 293 293 293 292 291 290 289 288 287 287 287
230 233 235 238 241 244 248 251 254 257 260 262 264 266 267 269 271 273 275 278 280 282 284 287 289 290 291 293 293 292 292 291 291 291 291 290 290 290 288 287 285 285 285
233 235 238 241 243 246 249 252 256 258 260 262 264 266 268 270 272 273 275 277 279 282 284 286 287 289 290 291 292 291 290 290 289 288 288 288 288 288 287 286 285 284 283
235 237 239 241 244 247 250 253 256 259 261 263 264 267 269 271 273 275 276 278 279 281 283 285 287 289 290 290 291 291 291 290 289 288 287 288 288 287 287 286 285 283 282
236 238 241 243 245 248 251 254 258 261 263 265 267 268 270 272 273 275 277 279 280 281 283 284 286 288 289 290 290 292 293 293 292 290 290 289 289 289 288 287 285 283 282
236 238 240 243 246 249 252 256 259 262 264 267 268 270 272 274 274 275 277 279 280 281 282 284 286 287 288 289 288 289 293 293 295 293 292 292 292 291 290 289 287 285 282
237 238 241 244 248 252 255 258 260 263 266 268 271 272 273 275 276 278 279 279 280 281 282 284 285 286 287 288 289 288 289 292 295 296 295 296 295 295 293 293 292 288 285
237 239 241 245 249 253 257 260 262 265 268 271 272 274 274 276 277 278 279 279 280 281 282 283 283 284 285 286 287 290 291 292 292 293 296 297 298 297 297 296 295 292 289
239 241 245 248 252 255 258 261 264 267 269 271 273 274 275 276 278 279 281 281 282 283 283 283 282 282 283 284 287 289 291 292 293 293 295 298 299 300 301 300 299 298 295